Location: Unspecified
(0.0000°N, 0.0000°E)
Time: 11:21:57
(UTC+00:00)

Vanguard 2 - Pass Details

Date: 23 November 2019
Orbit: 553 x 2938 km, 32.9° (Epoch: 07 December)

Event Time Altitude Azimuth Distance (km) Brightness Sun altitude
Rises 04:57:22 0° 251° (WSW) 6,773 11.9 -11.5°
Reaches altitude 10° 05:02:16 10° 257° (WSW) 5,765 11.5 -10.3°
Maximum altitude 05:18:30 44° 323° (NW) 3,230 10.3 -6.5°
Drops below altitude 10° 05:30:38 10° 32° (NNE) 4,348 11.5 -3.7°
Sets 05:33:48 0° 39° (NE) 5,042 12.0 -2.9°
